Temperature
17 19 20 20 19 19 18 18 19 20 19 15 17 18 20 20 20 19 18 17 17 16 16 15 16 16 16 15 14 14 13 12 11 10 9 9 8 8 7 7 7 6 6 5
18 19 19 18 16 16 17 18 19 20 16 15 17 17 20 20 19 18 17 17 17 16 15 14 15 16 16 16 15 15 14 13 12 11 11 10 9 8 8 8 7 7 6 5
19 19 16 16 17 17 17 18 19 18 17 16 15 19 22 22 18 17 16 15 15 15 15 14 14 16 17 16 16 16 15 14 13 12 11 10 9 8 8 8 8 7 6 5
18 17 15 16 17 17 18 17 16 15 16 18 16 17 21 21 21 21 20 18 16 15 15 15 15 16 17 17 17 16 15 15 14 13 12 11 11 10 11 10 9 8 7 6
19 16 16 17 17 16 17 15 15 15 15 16 16 16 20 21 22 22 21 19 17 16 16 16 17 17 18 17 17 16 16 15 15 14 13 12 11 11 10 9 9 9 8 7
17 15 16 16 15 14 15 15 14 14 15 17 17 17 20 23 21 20 20 19 17 16 17 17 18 18 18 18 17 17 16 16 15 15 14 13 13 12 11 10 9 9 8 8
17 17 15 14 15 15 15 17 18 19 18 19 15 15 19 21 20 19 18 17 16 16 16 17 17 18 18 18 18 17 17 17 16 15 15 15 14 13 12 11 9 9 9 9
18 18 16 15 16 17 16 17 18 18 18 18 15 16 20 21 19 17 16 16 16 16 16 16 17 17 17 17 17 17 17 17 17 16 16 15 15 13 13 12 10 9 9 9
18 18 15 14 14 15 16 16 16 17 17 16 17 17 19 20 20 19 19 17 16 16 15 15 15 16 16 16 16 16 16 16 16 16 15 15 14 14 14 12 10 9 9 8
17 17 16 14 13 13 14 15 15 16 16 17 18 17 19 21 22 21 19 17 16 15 15 14 14 15 15 15 16 16 16 15 15 15 14 14 14 13 13 12 11 10 9 7
16 17 16 15 15 16 14 14 15 16 16 16 17 18 19 20 20 19 17 16 15 14 14 13 14 14 14 15 15 15 15 15 14 14 14 14 14 13 12 12 11 10 8 7
15 16 17 17 14 13 15 16 16 16 17 16 16 18 20 19 18 16 16 15 14 13 13 13 13 13 14 14 14 14 14 14 14 14 13 13 13 12 12 12 11 10 8 7
13 15 16 17 15 13 13 13 14 15 15 15 15 17 20 19 19 17 16 14 13 12 12 12 12 13 13 13 13 13 13 13 13 13 13 13 13 12 12 11 10 9 7 6
13 15 16 16 17 17 15 14 13 13 14 15 16 17 19 19 18 16 14 13 12 12 12 12 11 12 12 12 12 12 12 12 12 12 12 12 12 11 11 10 9 8 7 5
13 14 15 15 16 15 14 14 14 14 15 15 16 17 18 18 16 14 13 12 12 11 11 11 11 11 11 11 11 11 11 11 11 11 11 11 11 10 10 9 8 7 6 4
12 13 13 13 14 14 13 13 14 14 15 15 15 15 16 14 14 13 13 12 11 11 11 10 10 10 10 10 9 9 10 10 10 10 10 10 10 9 9 9 8 7 5 4
12 12 12 13 13 12 12 14 14 14 14 14 15 16 14 13 13 12 12 11 11 10 10 9 9 9 8 8 8 8 9 9 9 9 9 9 9 8 8 8 7 6 5 3
12 11 12 11 11 10 15 15 14 14 14 14 14 13 13 12 11 11 11 10 10 9 9 8 8 8 7 7 8 8 8 8 8 8 8 8 8 7 7 7 6 5 3 2
9 10 11 10 11 13 14 14 12 12 13 13 13 12 12 11 11 12 11 9 9 8 8 7 7 7 7 7 7 7 7 7 7 7 7 7 6 6 6 5 5 4 2 1
7 9 10 9 8 11 15 12 10 12 13 12 11 11 11 10 10 11 9 8 8 7 7 6 6 6 6 6 6 6 6 6 6 5 5 5 5 5 5 4 4 3 1 -0
8 8 8 9 9 12 13 10 10 12 13 11 11 10 10 10 9 9 8 7 7 6 6 6 6 6 6 6 5 5 5 4 4 4 4 4 4 4 4 3 3 2 1 -1
10 10 9 9 8 10 12 10 12 13 12 10 10 9 9 8 8 7 6 6 6 6 6 5 5 5 5 5 5 4 3 3 3 3 3 3 3 3 3 2 2 1 -1 -2
9 11 12 10 12 13 10 11 11 10 10 9 9 8 7 7 6 6 5 5 5 5 5 5 4 4 5 4 3 3 3 2 2 2 2 2 2 2 1 1 1 -0 -2 -3
10 9 9 10 11 11 11 10 10 9 9 8 7 7 6 6 5 5 5 5 4 5 4 4 4 3 4 3 3 2 2 1 1 1 1 1 1 1 1 0 -0 -1 -2 -3
10 9 9 9 11 10 10 9 9 8 7 7 6 6 5 5 4 4 4 4 4 4 4 3 3 3 2 2 2 2 1 0 0 -0 -0 -0 -0 -0 -0 -0 -1 -1 -2 -3
9 9 9 10 11 11 10 9 8 7 6 5 5 5 4 4 4 3 3 4 4 3 3 3 3 2 2 1 1 1 0 -0 -1 -1 -1 -1 -1 -1 -1 -1 -1 -1 -2 -3
Wind_Speed
2 5 9 9 9 10 11 13 18 18 9 7 18 26 30 27 20 22 22 21 21 21 19 16 18 20 20 21 22 23 23 23 20 17 17 16 16 15 15 18 21 22 21 22
5 10 10 5 3 6 9 13 17 14 2 6 17 27 27 20 15 15 16 17 17 17 16 15 15 17 21 22 23 23 24 24 24 19 17 15 15 14 16 17 20 23 24 23
10 4 2 3 4 7 10 11 13 13 12 7 11 14 10 7 7 9 9 10 11 12 13 13 15 17 19 22 24 22 24 24 24 22 15 13 13 11 14 16 16 22 25 25
8 5 4 6 7 7 10 5 8 9 9 7 6 9 13 9 10 9 10 7 6 5 7 9 11 15 18 20 19 21 22 23 23 22 20 22 19 19 19 16 16 19 25 26
6 3 4 6 6 5 5 2 4 6 7 8 4 6 11 8 10 15 14 13 10 7 5 5 9 12 15 16 17 18 20 22 22 24 24 23 23 20 16 16 18 19 20 25
7 2 3 3 0 2 2 3 3 2 3 4 2 4 8 5 9 13 14 14 13 11 8 6 5 8 10 13 15 17 19 21 22 24 25 26 27 24 21 20 18 17 16 17
4 3 2 2 3 2 3 5 5 4 3 3 1 5 10 9 8 10 12 13 13 12 11 10 8 6 8 11 14 16 19 21 22 24 25 26 27 25 25 23 21 19 16 17
4 2 3 3 3 3 2 4 4 5 6 7 3 7 9 10 9 7 6 8 11 14 14 13 11 8 7 8 11 15 18 20 20 22 24 24 24 20 19 23 20 19 17 18
4 4 2 0 1 2 3 3 2 5 6 7 6 7 12 7 2 3 8 11 15 16 16 15 13 10 8 7 8 12 15 17 18 20 21 21 22 22 21 20 20 19 18 16
3 6 2 1 2 1 2 2 3 4 5 7 7 7 7 10 11 13 14 15 17 17 16 15 13 11 9 8 6 7 11 13 15 16 17 16 19 21 21 19 21 21 20 19
4 5 3 3 6 5 5 4 6 5 5 6 9 8 7 12 14 13 14 16 16 16 15 13 12 12 10 9 7 6 7 10 11 13 15 17 18 18 19 20 21 21 20 20
4 4 6 6 1 1 5 6 7 6 8 8 10 12 9 12 9 10 15 16 15 13 12 12 12 12 11 11 9 7 7 8 9 10 13 15 16 17 18 20 20 20 20 20
5 4 6 5 3 3 5 6 8 7 8 12 13 14 4 8 14 16 16 14 12 11 11 12 13 13 13 13 11 10 8 8 8 9 11 13 15 16 18 19 18 19 19 20
5 7 11 14 14 10 9 9 10 11 12 17 22 28 28 28 23 18 14 11 10 10 11 13 14 15 15 14 13 12 11 9 8 9 11 13 14 15 16 17 17 18 18 20
6 8 13 18 19 17 18 21 20 21 23 24 31 31 31 24 16 13 11 10 10 12 14 15 16 17 17 17 15 14 13 11 9 10 11 13 13 13 14 15 15 16 18 19
5 7 8 16 18 18 23 26 29 28 27 29 31 30 18 9 9 11 12 11 11 14 17 18 18 18 17 17 16 15 14 13 11 11 12 12 12 12 13 14 15 16 17 18
6 7 9 15 11 11 16 19 21 16 16 16 18 13 7 11 13 15 14 12 12 16 18 19 18 17 17 16 15 15 15 14 12 12 12 12 12 13 13 14 15 16 17 18
10 8 7 9 8 12 10 3 8 13 15 16 15 12 12 13 14 14 12 11 15 19 19 18 17 17 16 16 14 14 14 13 12 12 12 12 11 13 13 14 15 16 15 16
11 10 7 5 10 15 12 7 4 6 9 5 3 7 12 14 15 13 8 12 17 18 17 16 15 16 16 15 14 12 13 12 11 12 13 12 12 13 13 14 15 15 14 16
4 9 8 7 6 9 8 2 0 3 6 2 5 13 17 17 17 16 16 19 19 16 15 14 15 15 16 15 14 14 15 15 14 14 15 14 13 14 14 14 14 13 14 15
5 6 9 10 10 11 7 1 2 5 5 5 13 17 18 17 17 19 20 18 16 15 15 15 14 14 15 16 15 15 16 16 16 16 16 16 15 14 14 14 13 12 12 13
7 6 8 7 9 11 4 5 5 8 11 15 19 19 19 20 20 19 17 15 14 14 15 15 15 16 16 15 15 17 17 17 17 17 17 17 15 13 11 13 12 12 12 13
8 8 6 9 11 8 4 8 11 13 18 20 18 18 19 19 19 16 14 14 13 14 15 15 16 17 17 16 16 18 18 17 17 17 17 17 16 13 12 12 12 11 11 11
7 7 10 13 17 19 19 19 19 19 19 19 19 18 17 17 16 15 13 12 13 15 15 15 17 18 18 18 17 18 18 17 17 17 17 16 15 14 12 10 10 10 10 11
11 7 13 21 22 22 18 16 17 18 19 20 18 15 14 13 12 11 11 12 14 15 15 15 16 18 20 19 19 18 18 17 17 17 16 15 13 13 12 11 10 11 12 12
19 23 22 23 23 22 25 21 21 20 18 17 15 13 10 8 9 10 12 13 15 16 16 16 17 19 20 20 20 19 17 16 16 15 15 13 12 11 11 11 11 14 16 19
Wind_Direction
241 243 253 267 262 277 284 281 286 292 299 265 275 282 286 290 280 265 261 258 252 245 241 225 213 209 208 207 206 206 205 205 204 204 207 210 214 215 216 217 215 211 209 207
249 255 274 281 250 246 259 277 288 298 298 270 293 290 289 292 286 277 273 268 261 255 244 225 213 207 207 207 207 207 207 205 204 206 207 211 216 220 219 218 218 215 212 209
253 284 100 197 239 255 264 268 290 302 312 269 306 298 296 321 316 302 289 279 274 262 251 232 217 214 210 210 209 208 207 207 206 205 206 208 215 222 218 218 218 216 214 212
259 271 238 253 261 256 283 289 277 290 306 307 338 306 305 334 343 15 17 8 338 297 264 247 227 219 216 216 213 213 211 210 208 205 208 207 210 217 220 219 219 217 215 214
267 243 239 263 276 237 282 344 279 284 287 290 271 269 293 326 3 9 13 19 17 5 327 273 242 231 225 219 215 214 215 214 211 209 211 214 222 227 228 223 222 220 215 215
264 263 252 267 316 233 260 264 238 223 248 265 255 263 293 339 353 345 353 6 11 7 357 330 279 245 232 221 215 214 215 217 213 212 214 218 223 226 226 224 222 219 217 215
273 214 199 205 237 183 237 290 293 278 265 277 128 258 263 292 322 318 324 342 356 0 358 347 328 282 245 225 217 215 216 219 215 215 217 221 225 227 228 228 224 221 219 216
295 271 188 207 246 295 243 270 300 304 297 302 260 253 269 298 306 305 318 342 356 2 356 345 334 312 278 245 226 220 220 222 218 218 221 224 226 228 232 230 227 225 224 222
264 284 120 166 243 243 230 223 309 280 278 276 264 269 289 280 259 340 359 2 359 353 347 341 336 328 309 280 245 230 228 228 224 223 224 226 227 228 231 233 231 231 229 225
255 276 251 139 166 160 286 209 200 246 280 282 271 263 260 285 310 335 346 351 349 347 343 341 340 337 328 313 289 254 241 238 234 228 227 230 230 231 233 233 232 230 229 225
224 258 254 221 223 226 181 195 223 246 259 276 287 270 254 277 307 326 334 341 343 341 340 341 342 342 338 333 319 290 263 251 244 236 233 233 234 233 233 233 234 233 230 226
205 246 266 254 140 266 235 235 217 248 263 248 277 280 271 280 305 323 327 333 337 342 344 345 346 346 348 344 336 317 291 269 257 248 242 240 239 237 235 236 235 233 231 227
170 222 279 263 210 188 225 227 225 244 271 263 266 274 275 277 300 318 328 335 342 346 350 353 352 349 347 342 337 327 312 292 278 262 252 248 244 241 240 240 238 234 232 228
196 232 244 265 281 288 260 247 228 229 256 267 262 275 287 296 312 326 337 342 345 350 351 350 346 343 340 336 332 328 320 309 292 274 262 258 254 250 247 244 239 235 231 229
199 248 251 261 272 276 270 268 258 248 255 265 274 280 289 308 324 331 335 340 341 346 346 342 338 334 332 330 329 328 321 315 302 284 272 268 267 262 255 249 244 238 234 231
218 253 265 269 270 273 271 266 263 261 260 261 269 277 295 326 341 337 336 334 335 337 336 333 329 327 326 325 325 323 319 316 306 291 283 281 276 268 259 252 245 239 235 231
219 241 272 281 295 290 270 257 254 247 245 253 267 287 338 339 336 330 325 323 326 328 328 325 322 321 320 319 320 317 314 313 305 294 288 285 280 272 265 257 248 242 237 232
240 242 263 284 286 253 264 281 259 261 263 264 270 291 315 325 321 310 307 318 324 325 322 319 318 316 314 313 315 312 310 308 302 296 291 286 281 277 272 262 253 247 241 235
225 223 238 252 266 275 280 280 255 254 277 279 295 329 332 329 314 311 324 324 319 316 315 313 313 311 310 309 312 310 305 304 297 294 296 295 286 281 276 267 259 251 244 239
184 211 225 227 246 267 288 109 64 268 272 113 340 331 330 329 318 317 325 318 314 313 312 313 313 310 309 313 318 311 308 309 308 308 305 302 295 285 278 273 266 256 246 242
161 190 216 232 244 267 278 192 207 250 312 346 323 321 318 312 304 308 313 310 308 308 310 313 313 311 311 318 317 309 308 309 311 310 306 302 296 289 282 278 268 258 248 243
208 211 215 219 226 252 200 173 225 296 318 311 311 313 311 307 306 308 309 307 306 307 310 315 315 312 313 314 311 308 308 311 312 308 304 301 298 293 284 277 270 258 248 243
225 227 240 222 238 270 212 248 288 304 302 307 308 309 307 304 305 306 304 304 306 309 312 314 313 310 310 312 312 307 308 311 310 306 303 302 301 295 286 277 270 260 247 242
241 241 252 262 262 269 276 281 286 292 298 305 305 304 301 298 299 301 303 305 308 310 313 314 312 310 311 312 310 306 307 309 306 304 303 303 302 298 291 277 266 257 248 242
248 248 253 263 274 282 278 282 292 300 303 303 302 298 295 294 296 301 304 306 307 308 310 311 309 306 306 309 309 308 309 310 307 305 303 303 299 295 292 279 265 258 249 243
239 246 255 266 278 287 293 303 305 303 302 303 301 299 297 295 297 302 302 304 305 306 307 307 305 306 309 310 309 309 310 310 307 305 304 303 301 297 291 287 280 259 252 253
Height
1553 1552 1546 1543 1544 1544 1544 1543 1538 1531 1530 1535 1524 1510 1495 1492 1494 1491 1489 1489 1489 1489 1492 1494 1495 1498 1500 1502 1505 1507 1510 1513 1515 1516 1517 1518 1519 1522 1523 1524 1526 1527 1528 1529
1550 1546 1543 1545 1547 1547 1545 1542 1534 1527 1532 1533 1520 1506 1490 1486 1485 1484 1483 1482 1482 1483 1485 1487 1488 1490 1492 1495 1497 1500 1502 1505 1506 1507 1509 1511 1513 1514 1515 1516 1517 1518 1519 1520
1546 1543 1545 1545 1545 1545 1541 1539 1532 1532 1529 1527 1526 1499 1482 1480 1484 1482 1480 1478 1477 1478 1479 1481 1481 1483 1485 1487 1490 1492 1495 1497 1499 1501 1503 1503 1504 1504 1505 1505 1506 1508 1510 1511
1544 1543 1545 1544 1542 1541 1536 1535 1537 1537 1534 1524 1529 1517 1486 1480 1479 1477 1477 1476 1476 1475 1476 1477 1477 1478 1479 1482 1484 1486 1488 1490 1492 1493 1493 1493 1493 1492 1493 1496 1497 1498 1499 1501
1540 1542 1543 1541 1538 1540 1536 1539 1538 1537 1534 1531 1525 1525 1494 1481 1478 1476 1477 1477 1477 1475 1475 1475 1475 1475 1476 1477 1478 1480 1481 1482 1483 1484 1484 1484 1484 1485 1487 1487 1486 1487 1488 1489
1540 1542 1542 1540 1541 1541 1540 1538 1537 1537 1532 1528 1522 1522 1499 1479 1482 1481 1478 1479 1478 1476 1475 1474 1473 1473 1472 1472 1472 1473 1473 1474 1475 1475 1475 1475 1475 1476 1477 1476 1475 1476 1476 1476
1538 1539 1540 1541 1539 1540 1539 1534 1527 1523 1522 1517 1526 1524 1501 1481 1484 1485 1483 1481 1478 1476 1475 1473 1472 1470 1469 1468 1467 1467 1466 1466 1467 1466 1466 1466 1466 1467 1466 1466 1465 1465 1464 1464
1539 1534 1537 1539 1538 1536 1537 1535 1533 1533 1525 1517 1522 1518 1489 1481 1484 1484 1483 1482 1479 1477 1474 1472 1469 1467 1465 1463 1462 1460 1460 1459 1459 1458 1458 1457 1457 1457 1456 1456 1455 1454 1452 1453
1538 1536 1538 1539 1539 1538 1536 1535 1536 1533 1529 1532 1515 1507 1491 1478 1480 1480 1480 1480 1478 1476 1473 1470 1466 1463 1461 1459 1457 1455 1454 1453 1452 1451 1450 1449 1449 1448 1447 1446 1445 1444 1443 1442
1537 1537 1535 1539 1540 1540 1538 1535 1537 1534 1530 1524 1511 1506 1492 1477 1474 1476 1477 1478 1477 1475 1471 1468 1464 1460 1457 1455 1453 1451 1449 1448 1446 1445 1444 1442 1441 1440 1438 1437 1435 1433 1432 1432
1538 1537 1534 1536 1534 1530 1538 1538 1534 1529 1527 1523 1513 1500 1482 1478 1476 1478 1479 1478 1476 1474 1470 1466 1462 1459 1456 1453 1450 1448 1446 1444 1442 1440 1438 1436 1434 1432 1429 1427 1425 1424 1423 1421
1538 1536 1531 1528 1531 1534 1531 1528 1528 1528 1519 1520 1512 1495 1476 1477 1479 1480 1479 1478 1475 1472 1469 1465 1462 1459 1455 1452 1449 1446 1443 1440 1437 1435 1432 1429 1427 1424 1421 1418 1416 1414 1412 1411
1538 1536 1532 1525 1531 1534 1532 1529 1527 1524 1521 1514 1511 1490 1474 1476 1476 1477 1478 1476 1474 1471 1468 1465 1461 1458 1454 1451 1447 1444 1440 1437 1433 1430 1427 1424 1420 1417 1413 1410 1407 1405 1403 1401
1536 1532 1530 1526 1517 1517 1522 1524 1525 1524 1516 1504 1494 1481 1472 1471 1472 1475 1476 1475 1472 1470 1467 1464 1460 1457 1453 1449 1445 1441 1437 1433 1429 1425 1421 1417 1413 1409 1405 1402 1398 1395 1393 1390
1535 1529 1523 1519 1516 1518 1518 1515 1512 1512 1504 1498 1482 1477 1470 1471 1475 1476 1475 1473 1471 1468 1465 1462 1458 1454 1450 1446 1441 1437 1432 1428 1423 1419 1414 1410 1406 1402 1397 1393 1389 1386 1383 1380
1532 1528 1525 1520 1516 1515 1513 1505 1500 1496 1493 1488 1481 1476 1474 1477 1477 1476 1474 1471 1468 1466 1463 1459 1455 1451 1446 1441 1436 1431 1426 1422 1417 1412 1407 1403 1398 1393 1389 1384 1380 1376 1372 1370
1528 1526 1523 1513 1512 1515 1504 1489 1486 1485 1481 1480 1476 1473 1476 1476 1476 1474 1471 1469 1466 1463 1460 1455 1451 1446 1441 1436 1430 1425 1420 1415 1409 1404 1400 1395 1390 1385 1380 1375 1370 1366 1363 1360
1522 1524 1522 1517 1516 1514 1483 1480 1481 1479 1476 1475 1475 1476 1477 1476 1475 1472 1468 1465 1463 1459 1455 1450 1445 1440 1435 1430 1424 1419 1413 1408 1402 1397 1392 1387 1381 1376 1371 1366 1361 1357 1353 1350
1519 1520 1520 1520 1508 1491 1480 1479 1479 1479 1474 1473 1474 1475 1475 1473 1469 1466 1464 1462 1459 1455 1449 1444 1439 1434 1428 1423 1417 1411 1406 1400 1395 1389 1384 1378 1373 1367 1362 1357 1352 1348 1344 1341
1520 1519 1517 1515 1516 1497 1474 1479 1479 1480 1473 1473 1473 1472 1470 1468 1464 1460 1460 1457 1452 1448 1443 1438 1433 1428 1422 1417 1410 1404 1398 1392 1386 1381 1375 1370 1365 1359 1353 1348 1344 1339 1335 1332
1516 1517 1516 1509 1506 1485 1475 1478 1479 1478 1469 1472 1470 1469 1467 1465 1462 1457 1454 1450 1446 1442 1437 1432 1427 1421 1416 1409 1403 1396 1390 1385 1379 1373 1367 1362 1357 1351 1346 1340 1335 1331 1327 1324
1503 1503 1505 1502 1501 1487 1473 1476 1474 1469 1469 1469 1467 1465 1462 1459 1455 1451 1447 1443 1440 1435 1431 1426 1420 1415 1409 1403 1396 1389 1383 1377 1371 1365 1359 1354 1349 1343 1338 1332 1327 1323 1319 1316
1499 1493 1488 1487 1479 1471 1472 1470 1469 1468 1466 1464 1462 1460 1457 1452 1449 1445 1442 1438 1434 1430 1425 1419 1413 1407 1401 1396 1390 1382 1376 1370 1363 1357 1351 1346 1341 1335 1330 1325 1320 1315 1311 1308
1492 1491 1488 1479 1469 1469 1468 1467 1466 1465 1462 1459 1457 1454 1450 1446 1443 1440 1436 1432 1428 1424 1418 1412 1406 1399 1393 1388 1382 1376 1369 1362 1356 1349 1344 1338 1333 1327 1322 1317 1313 1308 1304 1301
1487 1486 1479 1470 1465 1464 1462 1463 1461 1459 1456 1453 1450 1447 1444 1440 1437 1434 1431 1427 1423 1417 1411 1406 1399 1392 1385 1379 1374 1368 1362 1355 1348 1342 1336 1331 1325 1320 1314 1310 1305 1301 1297 1294
1481 1477 1471 1460 1459 1459 1455 1458 1456 1453 1450 1447 1444 1440 1438 1435 1433 1430 1426 1422 1416 1410 1404 1398 1391 1384 1378 1372 1365 1360 1354 1348 1341 1334 1329 1323 1318 1313 1307 1302 1297 1293 1290 1286